GFSNIL_prec_precacc12_273.txt.gz
Total_Precipitation_Accumulation
0.02 0.03 0.11 0.10 0.05 0.04 0.10 0.12 0.14 0.13 0.07 0.05 0.07 0.10 0.15 0.20 0.15 0.12 0.13 0.09 0.22 0.45
0.01 0.02 0.06 0.14 0.09 0.03 0.14 0.10 0.13 0.08 0.13 0.07 0.07 0.12 0.20 0.19 0.21 0.28 0.19 0.14 0.21 0.48
0.00 0.00 0.04 0.11 0.04 0.01 0.03 0.08 0.17 0.21 0.14 0.12 0.09 0.10 0.19 0.17 0.24 0.32 0.41 0.33 0.17 0.32
0.00 0.01 0.01 0.01 0.00 0.01 0.02 0.08 0.12 0.14 0.10 0.09 0.06 0.02 0.14 0.34 0.43 0.42 0.38 0.47 0.39 0.31
0.00 0.00 0.00 0.00 0.00 0.00 0.00 0.01 0.03 0.05 0.06 0.07 0.07 0.07 0.17 0.34 0.48 0.61 0.55 0.50 0.51 0.41
0.00 0.00 0.00 0.00 0.01 0.00 0.01 0.01 0.03 0.04 0.04 0.03 0.06 0.12 0.24 0.28 0.43 0.57 0.67 0.63 0.45 0.40
0.00 0.00 0.00 0.00 0.00 0.00 0.00 0.01 0.01 0.03 0.03 0.03 0.03 0.23 0.19 0.16 0.15 0.49 0.60 0.82 0.74 0.49
0.00 0.00 0.00 0.00 0.00 0.00 0.00 0.00 0.01 0.02 0.02 0.02 0.02 0.11 0.19 0.14 0.18 0.15 0.41 0.58 0.96 1.12
0.00 0.01 0.00 0.00 0.00 0.00 0.02 0.01 0.03 0.02 0.03 0.01 0.00 0.00 0.02 0.07 0.11 0.10 0.04 0.09 0.24 0.41
0.01 0.03 0.00 0.00 0.01 0.03 0.05 0.06 0.05 0.06 0.07 0.02 0.00 0.00 0.00 0.00 0.07 0.10 0.04 0.00 0.02 0.05
0.00 0.00 0.00 0.01 0.02 0.02 0.06 0.06 0.05 0.03 0.01 0.00 0.00 0.00 0.00 0.00 0.03 0.05 0.04 0.02 0.00 0.00
0.00 0.01 0.03 0.03 0.04 0.06 0.03 0.01 0.01 0.00 0.00 0.00 0.00 0.00 0.00 0.00 0.01 0.06 0.07 0.02 0.01 0.00
0.00 0.08 0.20 0.25 0.20 0.16 0.11 0.03 0.01 0.00 0.00 0.00 0.00 0.00 0.00 0.00 0.00 0.00 0.04 0.08 0.02 0.00
0.12 0.40 0.57 0.46 0.30 0.25 0.23 0.16 0.05 0.01 0.00 0.00 0.00 0.00 0.00 0.00 0.00 0.00 0.00 0.02 0.01 0.00

GFSNIL_prec_precacc12_276.txt.gz
Total_Precipitation_Accumulation
0.02 0.04 0.17 0.16 0.16 0.13 0.12 0.12 0.14 0.13 0.05 0.03 0.07 0.09 0.17 0.25 0.17 0.23 0.18 0.13 0.28 0.48
0.03 0.03 0.09 0.21 0.20 0.15 0.24 0.10 0.09 0.06 0.07 0.06 0.07 0.12 0.25 0.24 0.23 0.31 0.26 0.25 0.38 0.52
0.00 0.01 0.08 0.24 0.11 0.08 0.03 0.07 0.15 0.18 0.14 0.12 0.09 0.12 0.23 0.17 0.32 0.48 0.50 0.37 0.20 0.33
0.00 0.01 0.02 0.05 0.05 0.04 0.04 0.06 0.13 0.13 0.11 0.09 0.06 0.06 0.10 0.22 0.46 0.50 0.46 0.55 0.45 0.50
0.00 0.00 0.00 0.01 0.01 0.00 0.01 0.02 0.06 0.08 0.05 0.07 0.08 0.09 0.08 0.23 0.38 0.51 0.58 0.58 0.64 0.59
0.00 0.00 0.00 0.01 0.01 0.01 0.01 0.02 0.04 0.05 0.07 0.06 0.08 0.12 0.18 0.28 0.44 0.58 0.69 0.69 0.52 0.51
0.00 0.00 0.00 0.00 0.01 0.00 0.01 0.02 0.03 0.06 0.06 0.06 0.04 0.10 0.17 0.20 0.19 0.50 0.59 0.82 0.81 0.60
0.00 0.00 0.00 0.00 0.00 0.00 0.00 0.01 0.03 0.04 0.04 0.04 0.03 0.07 0.14 0.12 0.16 0.09 0.29 0.47 0.88 0.97
0.00 0.00 0.00 0.00 0.00 0.01 0.02 0.02 0.03 0.04 0.06 0.06 0.01 0.00 0.02 0.08 0.12 0.09 0.02 0.06 0.22 0.40
0.00 0.00 0.00 0.00 0.01 0.04 0.05 0.06 0.06 0.06 0.08 0.04 0.00 0.00 0.00 0.00 0.08 0.10 0.05 0.00 0.02 0.05
0.00 0.00 0.00 0.01 0.02 0.03 0.09 0.12 0.14 0.07 0.03 0.01 0.00 0.00 0.00 0.00 0.03 0.09 0.06 0.03 0.00 0.00
0.00 0.01 0.03 0.03 0.03 0.06 0.06 0.04 0.05 0.06 0.06 0.03 0.00 0.00 0.00 0.00 0.01 0.11 0.13 0.05 0.01 0.00
0.00 0.08 0.18 0.22 0.17 0.11 0.07 0.05 0.08 0.11 0.08 0.02 0.00 0.00 0.00 0.00 0.00 0.01 0.08 0.13 0.03 0.00
0.01 0.05 0.11 0.16 0.12 0.12 0.13 0.22 0.15 0.08 0.04 0.01 0.00 0.00 0.00 0.00 0.00 0.00 0.00 0.04 0.02 0.00

GFSNIL_prec_precacc12_279.txt.gz
Total_Precipitation_Accumulation
0.01 0.04 0.16 0.31 0.27 0.14 0.13 0.27 0.24 0.23 0.07 0.03 0.07 0.09 0.15 0.23 0.13 0.21 0.17 0.21 0.28 0.50
0.02 0.04 0.10 0.25 0.27 0.19 0.32 0.13 0.41 0.30 0.16 0.06 0.07 0.12 0.25 0.24 0.19 0.30 0.25 0.28 0.52 0.53
0.01 0.03 0.15 0.29 0.15 0.15 0.13 0.11 0.46 0.23 0.14 0.12 0.08 0.12 0.22 0.15 0.24 0.37 0.39 0.31 0.24 0.43
0.00 0.02 0.06 0.06 0.05 0.06 0.07 0.07 0.14 0.11 0.11 0.09 0.05 0.06 0.07 0.09 0.39 0.44 0.33 0.43 0.39 0.68
0.00 0.00 0.01 0.01 0.01 0.01 0.01 0.03 0.05 0.07 0.04 0.07 0.08 0.09 0.06 0.12 0.29 0.39 0.43 0.51 0.61 0.57
0.00 0.00 0.00 0.01 0.02 0.01 0.01 0.02 0.04 0.05 0.07 0.06 0.08 0.09 0.11 0.19 0.24 0.29 0.40 0.51 0.44 0.48
0.00 0.00 0.00 0.00 0.01 0.00 0.01 0.02 0.03 0.06 0.06 0.06 0.04 0.04 0.05 0.10 0.11 0.19 0.34 0.62 0.67 0.50
0.00 0.00 0.00 0.00 0.00 0.00 0.00 0.01 0.03 0.04 0.04 0.04 0.03 0.02 0.03 0.05 0.04 0.02 0.19 0.40 0.79 0.89
0.00 0.00 0.00 0.00 0.00 0.01 0.02 0.02 0.03 0.04 0.06 0.06 0.01 0.00 0.00 0.04 0.05 0.04 0.01 0.05 0.16 0.35
0.00 0.00 0.00 0.00 0.01 0.04 0.05 0.07 0.06 0.06 0.08 0.04 0.00 0.00 0.00 0.00 0.07 0.09 0.04 0.00 0.01 0.05
0.00 0.00 0.00 0.01 0.02 0.03 0.09 0.12 0.14 0.07 0.04 0.01 0.00 0.00 0.00 0.00 0.03 0.09 0.06 0.03 0.00 0.00
0.00 0.01 0.03 0.03 0.03 0.06 0.06 0.04 0.05 0.06 0.06 0.04 0.00 0.00 0.00 0.00 0.01 0.11 0.13 0.05 0.01 0.00
0.00 0.04 0.12 0.20 0.17 0.11 0.08 0.09 0.16 0.18 0.17 0.08 0.00 0.02 0.02 0.00 0.00 0.01 0.08 0.13 0.03 0.00
0.00 0.00 0.02 0.07 0.08 0.16 0.30 0.44 0.44 0.43 0.44 0.30 0.13 0.09 0.02 0.00 0.00 0.00 0.00 0.04 0.02 0.00

GFSNIL_prec_precacc12_282.txt.gz
Total_Precipitation_Accumulation
0.02 0.04 0.16 0.38 0.41 0.13 0.09 0.21 0.22 0.25 0.07 0.02 0.10 0.12 0.11 0.15 0.07 0.19 0.14 0.19 0.24 0.38
0.02 0.03 0.09 0.27 0.37 0.18 0.27 0.12 0.50 0.42 0.30 0.07 0.06 0.12 0.20 0.20 0.14 0.22 0.25 0.24 0.48 0.45
0.01 0.04 0.19 0.30 0.16 0.17 0.17 0.13 0.54 0.54 0.23 0.08 0.09 0.09 0.19 0.14 0.23 0.28 0.27 0.19 0.15 0.36
0.00 0.01 0.07 0.07 0.05 0.07 0.07 0.07 0.16 0.15 0.10 0.08 0.05 0.06 0.06 0.03 0.25 0.31 0.23 0.29 0.25 0.57
0.00 0.00 0.01 0.01 0.00 0.00 0.01 0.02 0.05 0.06 0.03 0.05 0.07 0.08 0.05 0.04 0.17 0.23 0.28 0.38 0.40 0.42
0.00 0.00 0.00 0.01 0.01 0.00 0.01 0.02 0.04 0.04 0.07 0.06 0.07 0.09 0.10 0.11 0.17 0.18 0.25 0.29 0.29 0.36
0.00 0.00 0.00 0.00 0.01 0.00 0.01 0.01 0.03 0.05 0.06 0.05 0.04 0.03 0.05 0.08 0.08 0.05 0.05 0.17 0.23 0.30
0.00 0.00 0.00 0.00 0.00 0.00 0.00 0.01 0.02 0.03 0.04 0.04 0.03 0.02 0.02 0.04 0.02 0.00 0.00 0.07 0.24 0.62
0.00 0.00 0.00 0.00 0.00 0.00 0.02 0.01 0.01 0.03 0.05 0.06 0.01 0.00 0.00 0.01 0.01 0.00 0.00 0.00 0.07 0.21
0.00 0.00 0.00 0.00 0.01 0.03 0.04 0.04 0.05 0.06 0.08 0.04 0.00 0.00 0.00 0.00 0.01 0.02 0.01 0.00 0.00 0.01
0.00 0.00 0.00 0.00 0.01 0.02 0.06 0.09 0.14 0.07 0.04 0.01 0.00 0.00 0.00 0.00 0.02 0.09 0.06 0.04 0.00 0.00
0.00 0.00 0.00 0.01 0.03 0.06 0.06 0.04 0.07 0.09 0.08 0.10 0.09 0.09 0.05 0.01 0.01 0.11 0.14 0.05 0.01 0.00
0.00 0.00 0.00 0.02 0.05 0.10 0.08 0.10 0.21 0.25 0.33 0.34 0.22 0.25 0.16 0.06 0.01 0.01 0.08 0.13 0.03 0.01
0.00 0.00 0.01 0.03 0.04 0.16 0.34 0.48 0.49 0.49 0.56 0.48 0.35 0.32 0.27 0.19 0.07 0.02 0.01 0.04 0.02 0.00

GFSNIL_prec_precacc12_285.txt.gz
Total_Precipitation_Accumulation
0.07 0.10 0.12 0.31 0.38 0.12 0.07 0.21 0.16 0.15 0.09 0.16 0.28 0.25 0.15 0.11 0.06 0.16 0.08 0.15 0.15 0.27
0.05 0.08 0.16 0.20 0.28 0.17 0.21 0.09 0.53 0.55 0.30 0.37 0.34 0.25 0.23 0.13 0.06 0.09 0.14 0.18 0.43 0.33
0.02 0.04 0.20 0.26 0.17 0.18 0.18 0.09 0.53 0.76 0.22 0.16 0.28 0.17 0.22 0.06 0.15 0.18 0.17 0.07 0.10 0.21
0.01 0.01 0.06 0.06 0.06 0.07 0.07 0.06 0.37 0.50 0.24 0.07 0.04 0.05 0.06 0.02 0.21 0.19 0.11 0.16 0.09 0.40
0.00 0.00 0.01 0.01 0.01 0.00 0.01 0.01 0.05 0.07 0.03 0.02 0.03 0.04 0.02 0.01 0.11 0.10 0.10 0.24 0.28 0.29
0.00 0.00 0.00 0.00 0.01 0.00 0.00 0.01 0.01 0.01 0.03 0.03 0.03 0.03 0.03 0.06 0.12 0.11 0.13 0.08 0.14 0.30
0.00 0.00 0.00 0.00 0.01 0.00 0.00 0.01 0.02 0.03 0.03 0.02 0.01 0.02 0.03 0.06 0.06 0.04 0.02 0.04 0.13 0.18
0.00 0.00 0.00 0.00 0.00 0.00 0.00 0.01 0.01 0.01 0.02 0.03 0.02 0.01 0.02 0.02 0.01 0.00 0.00 0.02 0.08 0.10
0.00 0.00 0.00 0.00 0.00 0.00 0.00 0.00 0.00 0.01 0.03 0.05 0.01 0.00 0.00 0.01 0.01 0.00 0.00 0.00 0.00 0.02
0.00 0.00 0.00 0.00 0.00 0.00 0.00 0.00 0.01 0.01 0.02 0.02 0.00 0.00 0.00 0.00 0.00 0.00 0.00 0.00 0.00 0.00
0.00 0.00 0.00 0.00 0.00 0.00 0.04 0.06 0.09 0.05 0.03 0.01 0.00 0.00 0.00 0.00 0.00 0.05 0.04 0.04 0.01 0.00
0.00 0.00 0.00 0.00 0.00 0.01 0.03 0.03 0.06 0.09 0.08 0.10 0.09 0.09 0.06 0.01 0.00 0.06 0.08 0.05 0.02 0.00
0.00 0.00 0.00 0.00 0.00 0.02 0.06 0.09 0.20 0.25 0.33 0.34 0.22 0.25 0.16 0.08 0.01 0.00 0.05 0.06 0.02 0.02
0.00 0.00 0.01 0.02 0.02 0.15 0.32 0.42 0.46 0.48 0.56 0.48 0.35 0.32 0.27 0.19 0.07 0.03 0.02 0.03 0.01 0.00

GFSNIL_prec_precacc12_288.txt.gz
Total_Precipitation_Accumulation
0.08 0.10 0.09 0.29 0.27 0.04 0.04 0.21 0.18 0.16 0.12 0.26 0.37 0.42 0.43 0.29 0.16 0.08 0.04 0.11 0.06 0.12
0.09 0.10 0.17 0.17 0.21 0.09 0.11 0.11 0.59 0.64 0.37 0.64 0.74 0.62 0.67 0.65 0.27 0.13 0.09 0.08 0.24 0.17
0.07 0.11 0.24 0.20 0.21 0.18 0.22 0.12 0.58 0.97 0.61 0.47 0.52 0.34 0.35 0.26 0.21 0.06 0.10 0.04 0.07 0.20
0.05 0.05 0.09 0.04 0.01 0.07 0.05 0.04 0.43 0.94 0.45 0.12 0.05 0.02 0.01 0.01 0.06 0.07 0.03 0.08 0.03 0.21
0.02 0.03 0.03 0.03 0.02 0.00 0.00 0.01 0.08 0.14 0.04 0.01 0.02 0.00 0.00 0.00 0.08 0.05 0.04 0.16 0.15 0.12
0.00 0.00 0.00 0.00 0.01 0.01 0.00 0.00 0.01 0.03 0.03 0.00 0.00 0.00 0.00 0.00 0.02 0.02 0.04 0.02 0.06 0.19
0.00 0.00 0.00 0.00 0.00 0.00 0.00 0.00 0.00 0.00 0.00 0.00 0.00 0.00 0.00 0.00 0.00 0.00 0.00 0.01 0.02 0.04
0.00 0.00 0.00 0.00 0.00 0.00 0.00 0.00 0.00 0.00 0.00 0.00 0.00 0.00 0.00 0.00 0.00 0.00 0.00 0.00 0.01 0.06
0.00 0.00 0.00 0.00 0.00 0.00 0.00 0.00 0.00 0.00 0.00 0.00 0.00 0.00 0.00 0.00 0.00 0.00 0.00 0.00 0.00 0.00
0.00 0.00 0.00 0.00 0.00 0.00 0.00 0.00 0.00 0.00 0.00 0.00 0.00 0.00 0.00 0.00 0.00 0.00 0.00 0.00 0.00 0.00
0.00 0.00 0.00 0.00 0.00 0.00 0.00 0.00 0.00 0.00 0.00 0.00 0.00 0.00 0.00 0.00 0.00 0.02 0.02 0.02 0.01 0.00
0.00 0.00 0.00 0.00 0.00 0.00 0.00 0.00 0.01 0.03 0.02 0.06 0.09 0.09 0.06 0.01 0.00 0.00 0.03 0.02 0.01 0.00
0.00 0.00 0.00 0.00 0.00 0.00 0.02 0.06 0.14 0.15 0.25 0.32 0.22 0.25 0.16 0.08 0.03 0.02 0.07 0.09 0.06 0.03
0.00 0.00 0.00 0.01 0.01 0.11 0.29 0.32 0.35 0.41 0.52 0.48 0.35 0.33 0.28 0.23 0.12 0.05 0.17 0.09 0.08 0.09

GFSNIL_prec_precacc12_291.txt.gz
Total_Precipitation_Accumulation
0.08 0.10 0.08 0.12 0.16 0.01 0.01 0.05 0.08 0.06 0.11 0.27 0.37 0.43 0.45 0.36 0.27 0.42 0.27 0.09 0.07 0.06
0.09 0.09 0.15 0.14 0.14 0.05 0.03 0.08 0.30 0.45 0.29 0.65 0.76 0.62 0.72 0.87 0.95 0.98 0.77 0.20 0.13 0.08
0.08 0.10 0.18 0.15 0.18 0.12 0.16 0.09 0.30 1.01 0.67 0.48 0.53 0.35 0.36 0.31 0.45 0.28 0.10 0.04 0.05 0.06
0.05 0.06 0.06 0.03 0.01 0.05 0.03 0.05 0.44 0.97 0.46 0.12 0.05 0.03 0.04 0.10 0.10 0.04 0.01 0.05 0.03 0.01
0.02 0.04 0.03 0.03 0.02 0.01 0.01 0.01 0.14 0.27 0.06 0.02 0.03 0.01 0.01 0.03 0.04 0.08 0.06 0.06 0.03 0.06
0.00 0.00 0.00 0.00 0.01 0.01 0.01 0.01 0.06 0.05 0.03 0.00 0.00 0.00 0.00 0.01 0.01 0.01 0.00 0.01 0.04 0.13
0.00 0.00 0.00 0.00 0.00 0.00 0.00 0.00 0.00 0.00 0.00 0.00 0.00 0.00 0.00 0.00 0.00 0.00 0.00 0.00 0.01 0.01
0.00 0.00 0.00 0.00 0.00 0.00 0.00 0.00 0.00 0.00 0.00 0.00 0.00 0.00 0.00 0.00 0.00 0.00 0.00 0.00 0.00 0.00
0.00 0.00 0.00 0.00 0.00 0.00 0.00 0.00 0.00 0.00 0.00 0.00 0.00 0.00 0.00 0.00 0.00 0.00 0.00 0.00 0.00 0.00
0.00 0.00 0.00 0.00 0.00 0.00 0.00 0.00 0.00 0.00 0.00 0.00 0.00 0.00 0.00 0.00 0.00 0.00 0.00 0.00 0.00 0.00
0.00 0.00 0.00 0.00 0.00 0.00 0.00 0.00 0.00 0.00 0.00 0.00 0.00 0.00 0.00 0.00 0.00 0.02 0.02 0.02 0.01 0.00
0.00 0.00 0.00 0.00 0.00 0.00 0.00 0.00 0.01 0.03 0.02 0.06 0.08 0.09 0.06 0.01 0.00 0.00 0.03 0.02 0.01 0.00
0.00 0.00 0.00 0.00 0.00 0.00 0.00 0.01 0.05 0.07 0.16 0.26 0.22 0.22 0.14 0.08 0.03 0.03 0.11 0.13 0.07 0.09
0.00 0.00 0.00 0.00 0.00 0.01 0.04 0.05 0.04 0.07 0.13 0.19 0.22 0.25 0.26 0.24 0.16 0.14 0.34 0.17 0.13 0.14

GFSNIL_prec_precacc12_297.txt.gz
Total_Precipitation_Accumulation
0.02 0.03 0.03 0.04 0.01 0.01 0.00 0.00 0.01 0.03 0.03 0.11 0.12 0.34 0.48 0.49 0.51 0.88 0.73 0.39 0.22 0.20
0.06 0.04 0.04 0.06 0.04 0.04 0.00 0.03 0.09 0.14 0.09 0.29 0.52 0.62 0.57 0.93 1.00 1.03 0.91 0.59 0.23 0.15
0.07 0.09 0.12 0.08 0.11 0.07 0.09 0.05 0.08 0.30 0.47 0.40 0.46 0.21 0.19 0.36 0.50 0.33 0.11 0.07 0.11 0.12
0.04 0.05 0.05 0.02 0.01 0.02 0.03 0.04 0.12 0.49 0.24 0.20 0.11 0.05 0.07 0.16 0.18 0.08 0.03 0.02 0.05 0.10
0.02 0.04 0.02 0.02 0.02 0.01 0.01 0.01 0.11 0.22 0.04 0.01 0.04 0.01 0.02 0.06 0.05 0.08 0.07 0.03 0.03 0.04
0.00 0.00 0.00 0.00 0.01 0.01 0.01 0.01 0.06 0.05 0.03 0.00 0.01 0.00 0.00 0.02 0.04 0.02 0.01 0.01 0.02 0.04
0.00 0.00 0.00 0.00 0.00 0.00 0.00 0.00 0.00 0.00 0.00 0.00 0.00 0.01 0.01 0.01 0.01 0.01 0.01 0.01 0.01 0.01
0.00 0.00 0.00 0.00 0.00 0.00 0.00 0.00 0.00 0.00 0.00 0.00 0.00 0.01 0.01 0.01 0.01 0.01 0.01 0.01 0.01 0.01
0.00 0.00 0.00 0.00 0.00 0.00 0.00 0.00 0.00 0.00 0.00 0.01 0.00 0.00 0.00 0.01 0.01 0.01 0.01 0.01 0.01 0.01
0.00 0.00 0.00 0.00 0.00 0.00 0.00 0.00 0.00 0.00 0.00 0.01 0.01 0.00 0.00 0.00 0.00 0.01 0.01 0.00 0.00 0.00
0.00 0.00 0.00 0.00 0.00 0.00 0.00 0.00 0.00 0.00 0.00 0.00 0.00 0.00 0.00 0.00 0.00 0.01 0.01 0.00 0.00 0.01
0.00 0.00 0.00 0.00 0.00 0.00 0.00 0.00 0.00 0.00 0.00 0.00 0.00 0.00 0.00 0.00 0.00 0.00 0.00 0.00 0.00 0.00
0.00 0.00 0.00 0.00 0.00 0.00 0.00 0.00 0.00 0.00 0.00 0.00 0.00 0.00 0.00 0.00 0.02 0.03 0.10 0.13 0.07 0.10
0.00 0.00 0.00 0.00 0.00 0.00 0.00 0.00 0.00 0.00 0.01 0.01 0.00 0.02 0.01 0.05 0.09 0.12 0.46 0.32 0.27 0.32